K3IR Weather Reports


Display with metric or nautical units.
time (UTC)temp
F
wind
direction
speed
MPH
gust
MPH
rain 1hr
in
rain 24hr
in
rain mn
in
humidity
%
barometer
mb
20260507020044 58 0.0 0.0 0.00 0.34 0.34 85 1010.2
20260507014549 58 0.0 0.0 0.00 0.34 0.34 85 1010.3
20260507013050 59 0.0 0.0 0.00 0.34 0.34 84 1010.5
20260507011540 59 0.0 0.0 0.00 0.34 0.34 85 1010.3
20260507010052 59 0.0 0.0 0.00 0.34 0.34 86 1010.3
20260507004537 60 0.0 0.0 0.00 0.34 0.34 88 1009.9
20260507003043 60 0.0 0.0 0.00 0.34 0.34 88 1009.9
20260507001549 60 0.0 0.0 0.00 0.34 0.34 89 1009.6
20260507000042 61 0.0 0.0 0.03 0.34 0.34 89 1009.0
20260506234544 62 0.0 0.0 0.07 0.34 0.34 91 1008.4
20260506233055 62 0.0 0.0 0.11 0.34 0.34 91 1008.3
20260506231540 62 0.0 0.0 0.11 0.34 0.34 91 1008.3
20260506230036 63 0.0 0.0 0.08 0.31 0.31 90 1008.3
20260506224543 63 0.0 0.0 0.04 0.27 0.27 89 1008.3
20260506223041 64 0.0 0.0 0.00 0.23 0.23 88 1008.2
20260506221545 65 0.0 0.0 0.00 0.23 0.23 87 1008.3
20260506220042 65 0.0 0.0 0.00 0.23 0.23 86 1008.0
20260506214540 65 0.0 0.0 0.00 0.23 0.23 86 1007.8
20260506213037 65 0.0 0.0 0.00 0.23 0.23 86 1007.7
20260506211542 65 0.0 0.0 0.00 0.23 0.23 85 1007.5
20260506210041 66 0.0 0.0 0.00 0.23 0.23 85 1007.4
20260506204541 66 0.0 0.0 0.00 0.23 0.23 85 1007.4
20260506203041 65 0.0 0.0 0.00 0.23 0.23 86 1007.3
20260506201541 65 0.0 0.0 0.00 0.23 0.23 86 1007.4
20260506200044 64 0.0 0.0 0.00 0.23 0.23 86 1007.4
20260506194544 64 0.0 0.0 0.00 0.23 0.23 86 1007.6
20260506193034 64 0.0 0.0 0.00 0.23 0.23 86 1007.6
20260506191542 64 0.0 0.0 0.00 0.23 0.23 87 1007.6
20260506190040 63 0.0 0.0 0.00 0.23 0.23 88 1007.6
20260506184537 63 0.0 0.0 0.00 0.23 0.23 88 1007.8
20260506183037 62 0.0 0.0 0.00 0.23 0.23 89 1007.9
20260506181540 62 0.0 0.0 0.00 0.23 0.23 90 1008.0
20260506180044 61 0.0 0.0 0.00 0.23 0.23 90 1008.2
20260506174541 61 0.0 0.0 0.00 0.23 0.23 90 1008.2
20260506173045 61 0.0 0.0 0.00 0.23 0.23 90 1008.2
20260506171542 61 0.0 0.0 0.00 0.23 0.23 90 1008.1
20260506170036 61 0.0 0.0 0.00 0.23 0.23 91 1008.1
20260506164553 60 0.0 0.0 0.00 0.23 0.23 92 1008.2
20260506163043 60 0.0 0.0 0.02 0.23 0.23 92 1008.2
20260506161541 60 0.0 0.0 0.04 0.23 0.23 92 1008.3
20260506160049 60 0.0 0.0 0.07 0.23 0.23 92 1008.5
20260506154548 60 0.0 0.0 0.09 0.23 0.23 92 1008.2
20260506153042 60 0.0 0.0 0.08 0.21 0.21 92 1007.9
20260506151542 60 0.0 0.0 0.07 0.19 0.19 91 1008.8
20260506150042 60 0.0 0.0 0.06 0.16 0.16 91 1009.1
20260506144540 60 0.0 0.0 0.07 0.14 0.14 91 1009.4
20260506143040 60 0.0 0.0 0.10 0.13 0.13 90 1009.2
20260506141542 60 0.0 0.0 0.09 0.12 0.12 90 1008.9
20260506140042 60 0.0 0.0 0.08 0.10 0.10 90 1008.8
20260506134542 60 0.0 0.0 0.06 0.07 0.07 89 1008.8
20260506133041 61 0.0 0.0 0.02 0.03 0.03 88 1009.0
20260506131541 61 0.0 0.0 0.03 0.03 0.03 88 1009.1
20260506130041 61 0.0 0.0 0.02 0.02 0.02 87 1009.0
20260506124539 61 0.0 0.0 0.01 0.01 0.01 85 1009.2
20260506123041 62 0.0 0.0 0.01 0.01 0.01 84 1009.3
20260506121551 62 0.0 0.0 0.00 0.00 0.00 82 1009.5
20260506120107 62 0.0 0.0 0.00 0.00 0.00 81 1009.4
20260506114536 63 0.0 0.0 0.00 0.00 0.00 80 1008.9
20260506113035 63 0.0 0.0 0.00 0.00 0.00 79 1008.9
20260506111542 64 0.0 0.0 0.00 0.00 0.00 76 1008.7
20260506110041 64 0.0 0.0 0.00 0.00 0.00 75 1008.6
20260506104542 64 0.0 0.0 0.00 0.00 0.00 75 1008.3
20260506103041 64 0.0 0.0 0.00 0.00 0.00 75 1008.3
20260506101536 64 0.0 0.0 0.00 0.00 0.00 75 1008.1
20260506100035 63 0.0 0.0 0.00 0.00 0.00 76 1008.0
20260506094546 62 0.0 0.0 0.00 0.00 0.00 76 1008.1
20260506093047 63 0.0 0.0 0.00 0.00 0.00 76 1008.1
20260506091542 63 0.0 0.0 0.00 0.00 0.00 75 1008.2
20260506090043 63 0.0 0.0 0.00 0.00 0.00 73 1008.5
20260506084536 65 0.0 0.0 0.00 0.00 0.00 70 1008.3
20260506083042 65 0.0 0.0 0.00 0.00 0.00 68 1008.5
20260506081541 66 0.0 0.0 0.00 0.00 0.00 68 1008.4
20260506073041 67 0.0 0.0 0.00 0.00 0.00 64 1008.6
20260506071551 68 0.0 0.0 0.00 0.00 0.00 63 1008.7
20260506061541 67 0.0 0.0 0.00 0.00 0.00 63 1009.2
20260506044553 64 0.0 0.0 0.00 0.00 0.00 62 1009.8
20260506043042 64 0.0 0.0 0.00 0.00 0.00 62 1009.7
20260506041546 64 0.0 0.0 0.00 0.00 0.00 60 1009.9
20260506040046 64 0.0 0.0 0.00 0.00 0.00 59 1009.8
20260506034543 64 0.0 0.0 0.00 0.00 0.00 59 1010.0
20260506033042 64 0.0 0.0 0.00 0.00 0.00 58 1009.9
20260506031554 65 0.0 0.0 0.00 0.00 0.00 58 1009.9
20260506030056 66 0.0 0.0 0.00 0.00 0.00 53 1010.0
20260506024544 68 0.0 0.0 0.00 0.00 0.00 49 1010.0
20260506023042 69 0.0 0.0 0.00 0.00 0.00 47 1010.0
20260506021541 69 0.0 0.0 0.00 0.00 0.00 47 1009.8